Regional Weather Roundup
Issued by NWS

Home | Current Version | Previous Version | Text Only | Print | Product List | Glossary Off
Versions: 1 2 3 4 5 6 7 8 9 10 11 12 13 14 15 16 17 18 19 20 21 22 23 24 25 26 27 28 29 30 31 32 33 34 35 36 37 38 39 40 41 42 43 44 45 46 47 48 49 50

192
ASUS43 KLSX 301559
RWRMO

WEATHER SUMMARY FOR MISSOURI
NATIONAL WEATHER SERVICE SPRINGFIELD MO
1100 AM CDT SUN APR 30 2017

NOTE: "FAIR" INDICATES FEW OR NO CLOUDS BELOW 12,000 FEET WITH NO
       SIGNIFICANT WEATHER AND/OR OBSTRUCTIONS TO VISIBILITY.
       CURRENT SKY AND/OR WEATHER CONDITIONS ARE NOT AVAILABLE FOR
       CHILLICOTHE AND FARMINGTON.

MOZ001>031-035>038-043-044-053-054-301700-
...NORTHERN AND WESTERN MISSOURI...

CITY           SKY/WX    TMP DP  RH WIND       PRES   REMARKS
KANSAS CTY INT LGT RAIN  49  48  97 E15       29.48F VSB 1
KANSAS C DTWN  LGT RAIN N/A N/A N/A E16       29.49F
LEE`S SUMMIT   RAIN      49  49 100 E14       29.50S FOG
ST JOSEPH      LGT RAIN  46  46 100 E18G26    29.50F FOG
CHILLICOTHE      N/A     47  46  97 NE14G24   29.59F
KIRKSVILLE     LGT RAIN  46  31  55 N18       29.68F

$$
MOZ066>068-077>081-088>096-101>105-301700-
...SOUTHWEST MISSOURI...

CITY           SKY/WX    TMP DP  RH WIND       PRES   REMARKS
SPRINGFIELD    CLOUDY    67  63  87 S16       29.52R
JOPLIN         CLOUDY    55  51  86 SW12      29.56F
BRANSON        CLOUDY    64  59  82 S7        29.58F

$$
MOZ032>034-039>042-045>050-055>058-069>072-301700-
...CENTRAL MISSOURI...

CITY           SKY/WX    TMP DP  RH WIND       PRES   REMARKS
COLUMBIA       CLOUDY    63  62  97 SE16      29.59F
JEFFERSON CITY CLOUDY    67  62  84 SE16G22   29.59F
ROLLA          HVY RAIN  63  32  31 E17G25    29.60F
SEDALIA        CLOUDY    64  64 100 E16       29.53F
OSAGE BEACH    LGT RAIN  64  62  93 SE15G21   29.55F

$$
MOZ051-052-059>065-301700-
...EAST CENTRAL MISSOURI...

CITY           SKY/WX    TMP DP  RH WIND       PRES   REMARKS
ST LOUIS INTL  RAIN      64  61  90 SE14      29.75R FOG
SPIRIT OF STL  LGT RAIN  63  62  97 SE12      29.71F FOG
ST CHARLES     LGT RAIN  62  62 100 SE13      29.73S FOG

$$
MOZ072>076-082>087-097>100-106>115-301700-
...SOUTH CENTRAL AND SOUTHEAST MISSOURI...

CITY           SKY/WX    TMP DP  RH WIND       PRES   REMARKS
CAPE GIRARDEAU LGT RAIN  65  63  93 SE12      29.75F
FARMINGTON     LGT RAIN  64  63  96 SE12G17   29.72F
POPLAR BLUFF   CLOUDY    67  66  97 E8        29.71F

$$




USA.gov is the U.S. government's official web portal to all federal, state and local government web resources and services.